Regional Weather Roundup
Issued by NWS Albany, NY

Home | Current Version | Previous Version | Text Only | Print | Product List | Glossary On
Versions: 1 2 3 4 5 6 7 8 9 10 11 12 13 14 15 16 17 18 19 20 21 22 23 24 25 26 27
000
ASUS41 KALY 031710
RWRALY

NEW YORK STATE HOURLY WEATHER ROUNDUP
NATIONAL WEATHER SERVICE ALBANY NY
1200 PM EST SAT DEC 03 2016

NOTE: "FAIR" INDICATES FEW OR NO CLOUDS BELOW 12,000 FEET WITH NO
SIGNIFICANT WEATHER AND/OR NO OBSTRUCTIONS TO VISIBILITY.

NYZ032-033-038>043-046>054-057>066-NYZ062>081-082-084-031800-
EAST


CITY           SKY/WX    TMP DP  RH WIND       PRES   REMARKS
ALBANY         PTSUNNY   41  24  51 NW25G32   30.00F
GLENS FALLS    CLOUDY    41  24  51 N10G21    29.98S
POUGHKEEPSIE   CLOUDY    43  25  49 NW13      30.00S
NEWBURGH       PTSUNNY   41  28  60 NW18G30   30.01F
MONTGOMERY     CLOUDY    43  26  51 NW8G24    30.01S
WHITE PLAINS   PTSUNNY   45  25  45 NW16G28   29.99F
ISLIP          PTSUNNY   47  26  44 NW21G29   29.98R
NEW YORK CITY  PTSUNNY   48  28  46 NW18G25   30.02S
CENTRAL PARK   PTSUNNY   45  25  45 VRB5      30.05S
$$

NYZ005>009-017-018-044>046-055-056-031800-
CENTRAL


CITY           SKY/WX    TMP DP  RH WIND       PRES   REMARKS
FULTON         CLOUDY    38  28  67 NW16G23   30.09F WCI  29
SYRACUSE       FLURRIES  36  33  89 W9        30.09F WCI  29
ROME           CLOUDY    34  32  92 W13       30.08F WCI  25
ELMIRA         CLOUDY    39  28  64 NW14      30.11S WCI  31
BINGHAMTON     CLOUDY    33  30  88 NW13      30.05S FOG     WCI  24
MONTICELLO     CLOUDY    36  25  64 NW20G29   30.02R WCI  25
$$

NYZ026>034-041>043-087-031800-
NORTH


CITY           SKY/WX    TMP DP  RH WIND       PRES   REMARKS
WATERTOWN      CLOUDY    37  26  64 W15       30.08F WCI  28
FORT DRUM      NOT AVBL
OGDENSBURG     CLOUDY    37  26  64 NW10      30.05F WCI  30
MASSENA        CLOUDY    37  26  64 W10G20    30.04S WCI  30
SARANAC LAKE   CLOUDY    28  24  85 W10       29.94R WCI  19
PLATTSBURGH    CLOUDY    37  26  64 NW15G22   29.97S WCI  28
$$

NYZ001>004-010>016-019>021-085-031800-
WEST


CITY           SKY/WX    TMP DP  RH WIND       PRES   REMARKS
NIAGARA FALLS  PTSUNNY   42  30  62 W17       30.17F
BUFFALO        PTSUNNY   41  30  65 W15       30.17F
DUNKIRK        CLOUDY    41  34  76 W16G22    30.20F
JAMESTOWN      CLOUDY    36  30  80 W13       30.16F WCI  27
WELLSVILLE     CLOUDY    35  29  78 NW15G26   30.12F WCI  25
ROCHESTER      CLOUDY    40  33  76 NW12      30.14F WCI  33
PENN YAN       CLOUDY    38  30  73 W8G18     30.12S WCI  32
$$

             KEY
       WCI = WIND CHILL INDEX
       VSB = VISIBILITY
       HX  = HEAT INDEX
$$




USA.gov is the U.S. government's official web portal to all federal, state and local government web resources and services.